"February 28 to March 14, 1993",,,,,,,,,,,,,,,
NOAA Ship Malcolm Baldrige,,,,,,,,,,,,,,,
Group,JD_GMT,Date,Time,Latitude,Longitude,xCO2w_ppm,xCO2a_ppm,Pres_Equil_mB,Pres_sealevel_mB,EqTemp_C,SST(TSG)_C,Sal(TSG)_permil,fCO2w@SST_uatm,fCO2a_uatm,dfCO2_uatm
AOML,57.875,26021993,21:00:00,7.482,-87.56,366.58,357.75,1008.44,1008.44,28.888,28.781,33.095,348.23,341.3,6.93
AOML,57.917,26021993,22:00:29,7.5,-87.786,367.74,357.76,1008.1,1008.1,28.819,28.706,33.165,349.2,341.25,7.95
AOML,57.958,26021993,22:59:31,7.52,-88.006,369.18,357.77,1008.38,1008.38,28.732,28.614,33.31,350.65,341.43,9.22
AOML,58,27021993,0:00:00,7.546,-88.232,368.3,357.81,1008.93,1008.93,28.543,28.412,33.48,350,341.82,8.18
AOML,58.042,27021993,1:00:29,7.561,-88.456,370.21,357.69,1009.6,1009.6,28.41,28.27,33.53,352.04,342.05,9.98
AOML,58.083,27021993,1:59:31,7.576,-88.679,371.07,357.59,1010.3,1010.3,28.312,28.165,33.57,353.1,342.28,10.82
AOML,58.125,27021993,3:00:00,7.591,-88.903,373.84,357.68,1011,1011,28.373,28.231,33.62,356,342.56,13.44
AOML,58.167,27021993,4:00:29,7.606,-89.126,373.32,357.7,1011.8,1011.8,28.131,27.972,33.663,355.78,343.06,12.72
AOML,58.208,27021993,4:59:31,7.627,-89.346,375.11,358.61,1012,1012,27.975,27.807,33.708,357.54,344.13,13.42
AOML,58.25,27021993,6:00:00,7.638,-89.564,372.07,358.61,1011.75,1011.75,27.878,27.705,33.728,354.55,344.11,10.44
AOML,58.292,27021993,7:00:29,7.648,-89.783,370.99,358.69,1011.11,1011.11,27.808,27.63,33.711,353.29,344.01,9.28
AOML,58.336,27021993,8:03:50,7.664,-90.016,369.69,358.58,1010.47,1010.47,27.81,27.633,33.722,351.82,343.69,8.13
AOML,58.375,27021993,9:00:00,7.686,-90.229,372.27,358.48,1009.76,1009.76,27.949,27.779,33.797,354.02,343.23,10.8
AOML,58.417,27021993,10:00:29,7.71,-90.46,371.92,358.42,1009.55,1009.55,27.911,27.739,33.857,353.61,343.13,10.48
AOML,58.459,27021993,11:00:58,7.728,-90.691,374.3,358.76,1009.84,1009.84,27.881,27.707,33.928,355.98,343.58,12.4
AOML,58.5,27021993,12:00:00,7.742,-90.923,377.12,358.77,1010.6,1010.6,27.761,27.581,33.997,358.94,343.96,14.98
AOML,58.542,27021993,13:00:29,7.754,-91.159,379.12,358.64,1011.61,1011.61,27.654,27.468,34.022,361.22,344.26,16.96
AOML,58.584,27021993,14:00:58,7.768,-91.395,382.89,358.58,1012.42,1012.42,27.58,27.39,34.017,365.12,344.55,20.57
AOML,58.625,27021993,15:00:00,7.776,-91.632,380.73,358.56,1013.14,1013.14,27.502,27.307,33.971,363.32,344.84,18.47
AOML,58.667,27021993,16:00:29,7.787,-91.875,378.01,358.5,1013.45,1013.45,27.581,27.39,33.964,360.83,344.83,16
AOML,58.709,27021993,17:00:58,7.805,-92.117,374.48,358.54,1013.24,1013.24,27.606,27.417,33.954,357.39,344.77,12.61
AOML,58.75,27021993,18:00:00,7.82,-92.358,373.05,358.76,1012.47,1012.47,27.633,27.445,33.945,355.75,344.7,11.04
AOML,58.792,27021993,19:00:29,7.835,-92.597,372.55,358.79,1011.57,1011.57,27.655,27.469,33.874,354.94,344.4,10.54
AOML,58.833,27021993,19:59:31,7.857,-92.837,371.71,358.83,1010.63,1010.63,27.749,27.568,33.927,353.8,344.02,9.78
AOML,58.875,27021993,21:00:00,7.874,-93.083,374.88,358.79,1010.17,1010.17,27.79,27.611,33.936,356.65,343.8,12.85
AOML,58.917,27021993,22:00:29,7.895,-93.326,374.77,358.72,1009.85,1009.85,27.832,27.656,33.937,356.43,343.58,12.85
AOML,58.959,27021993,23:00:58,7.911,-93.578,375.99,358.61,1009.76,1009.76,27.834,27.658,33.968,357.56,343.45,14.11
AOML,59,28021993,0:00:00,7.924,-93.826,378.48,358.49,1009.75,1009.75,27.89,27.717,33.995,359.92,343.29,16.64
AOML,59.042,28021993,1:00:29,7.946,-94.076,379.05,358.46,1010.3,1010.3,27.825,27.649,34.007,360.67,343.5,17.17
AOML,59.084,28021993,2:00:58,7.978,-94.323,381.22,358.39,1010.5,1010.5,27.806,27.629,34.021,362.81,343.51,19.29
AOML,59.125,28021993,3:00:00,8.006,-94.572,382.63,358.27,1011.41,1011.41,27.748,27.567,34.029,364.48,343.76,20.72
AOML,59.167,28021993,4:00:29,8.036,-94.824,387.03,358.06,1012.02,1012.02,27.672,27.487,34.062,368.91,343.84,25.07
AOML,59.208,28021993,4:59:31,8.053,-94.959,398.06,358.11,1012.4,1012.4,27.579,27.388,34.047,379.57,344.09,35.48
AOML,59.25,28021993,6:00:00,8.056,-94.966,398.74,358.07,1011.98,1011.98,27.564,27.373,34.049,380.06,343.92,36.14
AOML,59.292,28021993,7:00:29,8.04,-95.063,399.38,358.55,1011.5,1011.5,27.554,27.362,34.054,380.49,344.22,36.27
AOML,59.334,28021993,8:00:58,8.016,-95.022,392.35,358.13,1010.91,1010.91,27.597,27.408,34.065,373.56,343.57,29.99
AOML,59.375,28021993,9:00:00,7.985,-94.945,389.5,357.98,1010.62,1010.62,27.606,27.417,34.065,370.73,343.32,27.41
AOML,59.417,28021993,10:00:29,7.967,-94.976,388.95,358.1,1010.54,1010.54,27.616,27.428,34.062,370.18,343.4,26.78
AOML,59.459,28021993,11:00:58,7.897,-95.059,388.29,358.21,1010.91,1010.91,27.611,27.422,34.046,369.69,343.65,26.05
AOML,59.5,28021993,12:00:00,7.664,-95.064,379.56,358.28,1011.65,1011.65,27.555,27.363,33.969,361.65,344.01,17.64
AOML,59.542,28021993,13:00:29,7.43,-95.067,377.46,357.79,1012.29,1012.29,27.603,27.414,33.946,359.89,343.72,16.16
AOML,59.584,28021993,14:00:58,7.202,-95.072,380.06,357.94,1012.98,1012.98,27.727,27.544,33.897,362.62,344.02,18.6
AOML,59.625,28021993,15:00:00,6.971,-95.064,380.76,357.69,1013.56,1013.56,27.701,27.517,33.885,363.51,344.01,19.5
AOML,59.708,28021993,16:59:31,6.518,-95.044,370.19,358.22,1013.93,1013.93,27.875,27.701,33.909,353.55,344.51,9.04
AOML,59.75,28021993,18:00:00,6.287,-95.051,368.33,358.16,1013.63,1013.63,27.871,27.697,33.94,351.66,344.35,7.32
AOML,59.792,28021993,19:00:29,6.054,-95.056,368.19,358.23,1012.34,1012.34,28.014,27.848,33.955,351.07,343.85,7.22
AOML,59.834,28021993,20:00:58,5.824,-95.048,369.72,358.17,1011.72,1011.72,28.11,27.951,33.952,352.32,343.5,8.82
AOML,59.875,28021993,21:00:00,5.594,-95.046,370.48,358.11,1011.34,1011.34,28.202,28.048,33.954,352.91,343.23,9.68
AOML,59.918,28021993,22:01:55,5.362,-95.046,371.28,358.04,1010.93,1010.93,28.261,28.111,33.924,353.53,342.97,10.56
AOML,59.959,28021993,23:00:58,5.143,-95.042,374.03,357.93,1011.21,1011.21,28.251,28.101,33.916,356.25,342.97,13.28
AOML,60,01031993,0:00:00,5.06,-95.038,372.93,358,1011.42,1011.42,28.051,27.888,33.91,355.27,343.27,11.99
AOML,60.042,01031993,1:00:29,5.052,-95.011,371.4,357.93,1011.81,1011.81,27.944,27.775,33.919,353.94,343.43,10.51
AOML,60.084,01031993,2:00:58,5.017,-95.05,373.39,357.86,1012.15,1012.15,28.033,27.869,33.905,355.96,343.41,12.55
AOML,60.125,01031993,3:00:00,5,-95.042,378.2,358,1013.11,1013.11,28.185,28.031,33.965,360.92,343.77,17.15
AOML,60.167,01031993,4:00:29,4.967,-95.012,377.35,357.88,1013.38,1013.38,28.082,27.921,33.991,360.19,343.83,16.37
AOML,60.208,01031993,4:59:31,4.892,-94.949,376.24,357.89,1014.08,1014.08,27.97,27.802,34.002,359.39,344.17,15.22
AOML,60.25,01031993,6:00:00,4.664,-94.99,380.66,357.82,1013.63,1013.63,27.731,27.549,34.027,363.44,344.13,19.31
AOML,60.292,01031993,7:00:29,4.436,-95.035,390.65,357.8,1013.37,1013.37,27.803,27.626,34.035,372.88,343.96,28.92
AOML,60.334,01031993,8:00:58,4.208,-95.079,392.32,357.51,1012.77,1012.77,27.751,27.57,33.898,374.24,343.51,30.73
AOML,60.375,01031993,9:00:00,4.001,-95.123,393.3,357.57,1012.12,1012.12,27.765,27.585,33.869,374.93,343.34,31.6
AOML,60.417,01031993,10:00:29,3.997,-95.118,394.54,358.48,1012.01,1012.01,27.68,27.495,33.971,376.07,344.23,31.84
AOML,60.459,01031993,11:00:58,3.997,-95.114,395.05,358.02,1011.53,1011.53,27.682,27.497,33.981,376.37,343.63,32.74
AOML,60.5,01031993,12:00:00,3.992,-95.11,394.1,357.65,1011.82,1011.82,27.658,27.472,33.947,375.58,343.39,32.2
AOML,60.542,01031993,13:00:29,3.77,-95.149,394.31,357.57,1012.53,1012.53,27.604,27.415,33.925,376.05,343.6,32.45
AOML,60.584,01031993,14:00:58,3.539,-95.201,396.41,357.61,1012.88,1012.88,27.617,27.429,34.013,378.18,343.75,34.44
AOML,60.625,01031993,15:00:00,3.305,-95.248,407.89,357.58,1013.61,1013.61,27.922,27.751,34.005,389.44,343.74,45.7
AOML,60.667,01031993,16:00:29,3.07,-95.293,402.29,357.57,1014.02,1014.02,27.538,27.345,33.889,384.24,344.17,40.07
AOML,60.709,01031993,17:00:58,2.991,-95.309,405.16,357.46,1013.94,1013.94,27.591,27.401,33.995,386.95,344,42.95
AOML,60.75,01031993,18:00:00,2.918,-95.323,404.95,357.39,1013.47,1013.47,27.611,27.422,33.984,386.57,343.75,42.83
AOML,60.792,01031993,19:00:29,2.68,-95.364,404.71,357.21,1012.7,1012.7,27.439,27.24,34.063,386.04,343.44,42.6
AOML,60.875,01031993,21:00:00,2.218,-95.439,408.01,357.02,1011.13,1011.13,27.029,26.81,34.193,388.58,343.01,45.56
AOML,60.917,01031993,22:00:29,2.147,-95.459,413.14,357.3,1010.66,1010.66,27.073,26.856,34.222,393.27,343.09,50.18
AOML,60.959,01031993,23:00:58,2.151,-95.456,412.19,357.4,1010.37,1010.37,26.949,26.726,34.219,392.26,343.17,49.09
AOML,61,02031993,0:00:00,2.147,-95.457,410.47,357.5,1010.61,1010.61,26.906,26.681,34.209,390.73,343.38,47.35
AOML,61.042,02031993,1:00:29,2.143,-95.459,409.75,357.43,1011.51,1011.51,26.862,26.635,34.27,390.4,343.66,46.74
AOML,61.084,02031993,2:00:58,2.128,-95.457,410.39,357.14,1012.53,1012.53,26.881,26.654,34.27,391.42,343.72,47.69
AOML,61.125,02031993,3:00:00,2.078,-95.388,408.82,357.44,1012.98,1012.98,26.783,26.552,34.27,390.11,344.25,45.86
AOML,61.167,02031993,4:00:29,2.037,-95.175,401.74,356.82,1013.38,1013.38,26.649,26.412,34.27,383.51,343.89,39.62
AOML,61.209,02031993,5:00:58,1.997,-95.003,393.96,356.81,1013.65,1013.65,26.561,26.32,34.27,376.2,344.04,32.16
AOML,61.25,02031993,6:00:00,1.994,-95.015,394.41,356.77,1013.19,1013.19,26.524,26.281,34.27,376.46,343.86,32.59
AOML,61.292,02031993,7:00:29,1.999,-95.01,392.88,356.63,1012.44,1012.44,26.506,26.263,34.27,374.71,343.48,31.24
AOML,61.334,02031993,8:00:58,2.084,-94.935,392.73,356.36,1011.46,1011.46,26.555,26.314,34.27,374.19,342.84,31.35
AOML,61.375,02031993,9:00:00,2.077,-94.949,392.98,356.32,1010.9,1010.9,26.568,26.328,34.27,374.21,342.59,31.62
AOML,61.417,02031993,10:00:29,2.069,-94.96,392.92,356.35,1010.75,1010.75,26.557,26.316,34.27,374.1,342.58,31.52
AOML,61.459,02031993,11:00:58,2.064,-94.971,393.16,356.23,1010.54,1010.54,26.539,26.297,34.27,374.25,342.41,31.84
AOML,61.5,02031993,12:00:00,2.054,-94.981,393.83,356.14,1010.62,1010.62,26.539,26.298,34.27,374.92,342.35,32.57
AOML,61.542,02031993,13:00:29,1.998,-95.006,394.32,356.23,1010.89,1010.89,26.425,26.178,34.27,375.5,342.6,32.9
AOML,61.584,02031993,14:00:58,2.085,-94.953,393.5,356.25,1011.46,1011.46,26.497,26.254,34.27,374.93,342.78,32.15
AOML,61.625,02031993,15:00:00,2.069,-94.972,392.03,356.28,1012.31,1012.31,26.551,26.31,34.27,373.84,343.06,30.78
AOML,61.667,02031993,16:00:29,2.062,-94.985,391.21,356.22,1012.82,1012.82,26.604,26.365,34.27,373.25,343.15,30.1
AOML,61.709,02031993,17:00:58,2.052,-94.994,391.43,356.22,1013.07,1013.07,26.655,26.418,34.27,373.55,343.19,30.35
AOML,61.75,02031993,18:00:00,2.015,-95.006,382.14,356.25,1012.56,1012.56,26.609,26.37,34.27,364.5,343.07,21.43
AOML,61.792,02031993,19:00:29,1.993,-95.018,392.62,356.28,1011.71,1011.71,26.669,26.433,34.27,374.16,342.76,31.4
AOML,61.835,02031993,20:02:24,1.962,-95.025,394.58,356.23,1010.66,1010.66,26.756,26.524,34.27,375.63,342.29,33.34
AOML,61.875,02031993,21:00:00,1.974,-95.027,394.13,356.24,1009.9,1009.9,26.802,26.572,34.27,374.9,342,32.9
AOML,61.917,02031993,22:00:29,1.819,-95.036,393.25,356.46,1009.4,1009.4,26.81,26.58,34.27,373.87,342.03,31.84
AOML,61.958,02031993,22:59:31,1.58,-95.017,391.75,356.2,1009.32,1009.32,26.811,26.581,34.27,372.41,341.75,30.66
AOML,62,03031993,0:00:00,1.337,-95.009,394.08,356.15,1009.9,1009.9,26.627,26.389,34.27,374.87,342.04,32.83
AOML,62.042,03031993,1:00:29,1.094,-95.002,419.05,356.13,1010.52,1010.52,26.208,25.953,34.36,398.95,342.53,56.42
AOML,62.084,03031993,2:00:58,1.009,-94.999,438.2,356.11,1011.26,1011.26,26.105,25.846,34.506,417.52,342.85,74.68
AOML,62.125,03031993,3:00:00,0.941,-95.008,435.43,356.11,1012.23,1012.23,25.954,25.69,34.52,415.32,343.29,72.03
AOML,62.167,03031993,4:00:29,0.704,-95.004,436.29,356.02,1012.57,1012.57,25.905,25.639,34.628,416.3,343.35,72.95
AOML,62.208,03031993,4:59:31,0.472,-94.997,443.48,355.97,1012.74,1012.74,25.79,25.52,34.671,423.26,343.44,79.82
AOML,62.25,03031993,6:00:00,0.236,-94.988,443.97,356.07,1012.39,1012.39,25.784,25.513,34.674,423.59,343.43,80.16
AOML,62.292,03031993,7:00:29,0.001,-94.981,442.49,356.04,1011.78,1011.78,25.553,25.276,34.671,421.97,343.33,78.64
AOML,62.334,03031993,8:00:58,-0.06,-94.97,442.78,355.97,1010.87,1010.87,25.985,25.722,34.681,421.75,342.66,79.09
AOML,62.375,03031993,9:00:00,-0.142,-94.962,443.06,356.06,1010.26,1010.26,25.748,25.477,34.664,421.81,342.69,79.11
AOML,62.417,03031993,10:00:29,-0.387,-94.973,446.78,355.97,1009.93,1009.93,26.198,25.942,34.699,425.11,342.18,82.93
AOML,62.459,03031993,11:00:58,-0.631,-94.985,446.11,355.84,1009.97,1009.97,26.421,26.174,34.684,424.45,341.91,82.53
AOML,62.5,03031993,12:00:00,-0.879,-95,442.72,355.84,1010.08,1010.08,26.382,26.134,34.768,421.28,341.98,79.3
AOML,62.542,03031993,13:00:29,-0.988,-94.995,442.13,356.04,1010.47,1010.47,26.375,26.127,34.692,420.88,342.31,78.57
AOML,62.583,03031993,13:59:31,-0.99,-95.001,441.69,355.95,1011.37,1011.37,26.365,26.116,34.696,420.85,342.55,78.3
AOML,62.625,03031993,15:00:00,-1.23,-94.994,441.7,355.81,1012.25,1012.25,26.351,26.101,34.702,421.24,342.73,78.51
AOML,62.667,03031993,16:00:29,-1.475,-94.988,444.86,355.81,1012.35,1012.35,26.542,26.301,34.739,424.27,342.63,81.64
AOML,62.709,03031993,17:00:58,-1.722,-94.973,445.32,355.74,1012.3,1012.3,26.646,26.409,34.585,424.67,342.47,82.2
AOML,62.75,03031993,18:00:00,-1.968,-94.961,432.83,355.69,1012.09,1012.09,26.74,26.508,34.663,412.65,342.28,70.37
AOML,62.792,03031993,19:00:29,-2.03,-94.978,440.33,356.01,1011.22,1011.22,26.787,26.556,34.702,419.44,342.26,77.18
AOML,62.833,03031993,19:59:31,-2.036,-94.999,447.54,355.76,1010.57,1010.57,26.746,26.513,34.696,426.02,341.82,84.21
AOML,62.875,03031993,21:00:00,-2.149,-95.007,447.36,355.7,1009.88,1009.88,26.781,26.55,34.698,425.55,341.49,84.06
AOML,62.917,03031993,22:00:29,-2.384,-95.001,433.48,355.62,1009.08,1009.08,26.643,26.406,34.673,412.02,341.24,70.78
AOML,62.959,03031993,23:00:58,-2.632,-95,426.69,355.63,1008.78,1008.78,26.761,26.529,34.7,405.43,341.06,64.37
AOML,63,04031993,0:00:00,-2.873,-95,435.82,355.73,1009.27,1009.27,26.84,26.612,34.732,414.31,341.26,73.05
AOML,63.042,04031993,1:00:29,-2.994,-95.003,432.01,355.8,1010.5,1010.5,27.034,26.815,34.719,411.18,341.62,69.56
AOML,63.084,04031993,2:00:58,-3.084,-95.008,432.76,355.82,1010.5,1010.5,27.013,26.794,34.703,411.9,341.65,70.25
AOML,63.125,04031993,3:00:00,-3.326,-95.007,431.09,355.73,1010.5,1010.5,27.1,26.884,34.727,410.3,341.5,68.8
AOML,63.167,04031993,4:00:29,-3.568,-94.998,444.86,355.84,1011.76,1011.76,27.187,26.976,34.734,423.96,341.98,81.97
AOML,63.208,04031993,4:59:31,-3.811,-95,444.17,355.88,1011.99,1011.99,27.357,27.154,34.784,423.39,341.98,81.41
AOML,63.25,04031993,6:00:00,-3.99,-94.997,444.34,355.93,1011.53,1011.53,27.488,27.293,34.812,423.36,341.77,81.59
AOML,63.292,04031993,7:00:29,-4.007,-95.007,443.36,356.3,1010.84,1010.84,27.426,27.227,34.813,422.12,341.93,80.19
AOML,63.334,04031993,8:00:58,-4.246,-95.008,436.44,355.76,1010.22,1010.22,27.426,27.227,34.836,415.27,341.19,74.08
AOML,63.375,04031993,9:00:00,-4.481,-95.005,441.76,355.84,1009.73,1009.73,27.417,27.217,34.873,420.12,341.11,79.01
AOML,63.417,04031993,10:00:29,-4.711,-95.014,438.67,355.77,1009.59,1009.59,27.345,27.142,34.865,417.12,341.05,76.08
AOML,63.458,04031993,10:59:31,-4.937,-95.05,439.84,355.78,1009.91,1009.91,27.417,27.218,34.936,418.37,341.11,77.26
AOML,63.5,04031993,12:00:00,-4.945,-95.063,441.62,355.91,1010.52,1010.52,27.463,27.266,34.962,420.33,341.42,78.91
AOML,63.542,04031993,13:00:29,-4.951,-94.977,440.38,355.81,1011.11,1011.11,27.452,27.254,34.982,419.4,341.53,77.87
AOML,63.583,04031993,13:59:31,-4.967,-95.01,439.79,355.93,1011.82,1011.82,27.446,27.248,34.966,419.15,341.91,77.24
AOML,63.625,04031993,15:00:00,-5,-95.034,440.02,355.96,1012.65,1012.65,27.474,27.277,34.976,419.71,342.2,77.51
AOML,63.667,04031993,16:00:29,-5.032,-95.057,441.96,355.86,1012.93,1012.93,27.497,27.302,34.978,421.69,342.18,79.51
AOML,63.708,04031993,16:59:31,-5.05,-95.048,443.83,355.64,1012.76,1012.76,27.511,27.316,34.971,423.4,341.9,81.5
AOML,63.75,04031993,18:00:00,-5.281,-95.054,443.76,355.68,1012.42,1012.42,27.544,27.352,34.973,423.18,341.79,81.39
AOML,63.792,04031993,19:00:29,-5.522,-95.05,445.74,355.74,1011.42,1011.42,27.563,27.372,34.979,424.64,341.49,83.15
AOML,63.834,04031993,20:00:58,-5.765,-95.047,447.18,355.59,1010.56,1010.56,27.79,27.612,35.05,425.64,340.88,84.76
AOML,63.875,04031993,21:00:00,-6.002,-95.048,444.06,356.04,1009.93,1009.93,27.807,27.629,35.09,422.4,341.08,81.32
AOML,63.917,04031993,22:00:29,-6.239,-95.052,433.16,355.9,1009.55,1009.55,27.818,27.641,35.047,411.87,340.79,71.08
AOML,63.958,04031993,22:59:31,-6.479,-95.054,420.76,356,1009.68,1009.68,27.83,27.653,35.195,400.12,340.93,59.19
AOML,64,05031993,0:00:00,-6.718,-95.056,424.71,355.97,1010.43,1010.43,27.715,27.532,35.393,404.19,341.25,62.94
AOML,64.042,05031993,1:00:29,-6.955,-95.048,428.75,355.81,1011.46,1011.46,27.518,27.324,35.445,408.47,341.61,66.86
AOML,64.083,05031993,1:59:31,-7.19,-95.046,430.42,355.53,1011.95,1011.95,27.518,27.324,35.5,410.26,341.52,68.75
AOML,64.125,05031993,3:00:00,-7.425,-95.047,430.23,355.33,1012.5,1012.5,27.443,27.244,35.444,410.31,341.57,68.74
AOML,64.25,05031993,6:00:00,-7.939,-95.065,426.24,355.8,1013.09,1013.09,27.302,27.097,35.412,406.75,342.33,64.43
AOML,64.292,05031993,7:00:29,-7.917,-95.087,426,356.26,1012.48,1012.48,27.295,27.089,35.409,406.27,342.57,63.7
AOML,64.333,05031993,7:59:31,-7.901,-95.114,426.93,355.64,1011.91,1011.91,27.281,27.074,35.402,406.93,341.78,65.15
AOML,64.375,05031993,9:00:00,-7.894,-95.132,427.79,356.51,1011.19,1011.19,27.261,27.054,35.395,407.45,342.39,65.06
AOML,64.417,05031993,10:00:29,-7.951,-95.04,427.62,356.85,1010.66,1010.66,27.254,27.046,35.406,407.07,342.53,64.54
AOML,64.459,05031993,11:00:58,-7.964,-95.055,429.04,357.19,1010.78,1010.78,27.23,27.021,35.402,408.47,342.91,65.55
AOML,64.5,05031993,12:00:00,-8.001,-94.994,428.11,355.5,1011.28,1011.28,27.193,26.982,35.373,407.79,341.49,66.3
AOML,64.542,05031993,13:00:29,-8.032,-94.938,426.58,355.62,1011.9,1011.9,27.199,26.988,35.379,406.59,341.82,64.77
AOML,64.583,05031993,13:59:31,-8.032,-95.17,427.94,355.56,1012.53,1012.53,27.185,26.973,35.39,408.16,342,66.16
AOML,64.625,05031993,15:00:00,-8.031,-95.41,430.13,355.48,1012.77,1012.77,27.04,26.821,35.268,410.35,342.1,68.24
AOML,64.667,05031993,16:00:29,-8.03,-95.646,427.4,355.5,1013.48,1013.48,27.19,26.979,35.252,408.03,342.26,65.77
AOML,64.709,05031993,17:00:58,-8.029,-95.884,426.82,355.43,1013.67,1013.67,27.235,27.026,35.085,407.56,342.23,65.33
AOML,64.75,05031993,18:00:00,-8.028,-96.123,433.69,355.4,1013.35,1013.35,27.269,27.062,34.981,413.98,342.06,71.92
AOML,64.792,05031993,19:00:29,-8.031,-96.359,443.6,355.42,1012.64,1012.64,27.337,27.133,34.94,423.13,341.78,81.35
AOML,64.833,05031993,19:59:31,-8.031,-96.595,445.82,355.39,1011.33,1011.33,27.456,27.259,34.944,424.68,341.2,83.47
AOML,64.875,05031993,21:00:00,-8.032,-96.839,444.8,355.38,1010.8,1010.8,27.475,27.279,34.943,423.47,341,82.48
AOML,64.917,05031993,22:00:29,-8.026,-97.076,446.33,355.37,1010.41,1010.41,27.533,27.34,35.007,424.77,340.81,83.96
AOML,64.959,05031993,23:00:58,-8.029,-97.317,444.29,355.48,1010.2,1010.2,27.462,27.265,35.114,422.73,340.9,81.83
AOML,65,06031993,0:00:00,-8.028,-97.558,436.58,355.53,1010.37,1010.37,27.354,27.152,35.143,415.47,341.08,74.38
AOML,65.042,06031993,1:00:29,-8.028,-97.799,434.89,355.59,1011.02,1011.02,27.239,27.031,35.148,414.14,341.45,72.69
AOML,65.083,06031993,1:59:31,-8.029,-98.037,429.43,355.48,1011.75,1011.75,27.269,27.061,35.237,409.24,341.58,67.67
AOML,65.125,06031993,3:00:00,-8.028,-98.278,428.07,355.54,1012.22,1012.22,27.202,26.991,35.218,408.15,341.85,66.29
AOML,65.167,06031993,4:00:29,-8.026,-98.519,431.39,355.58,1012.66,1012.66,27.168,26.955,35.146,411.49,342.07,69.42
AOML,65.208,06031993,4:59:31,-8.027,-98.76,433.77,355.62,1013.01,1013.01,27.2,26.989,35.106,413.92,342.21,71.71
AOML,65.25,06031993,6:00:00,-8.032,-99,434.66,355.64,1012.55,1012.55,27.197,26.987,35.104,414.57,342.07,72.5
AOML,65.292,06031993,7:00:29,-8.035,-99.241,439.43,355.64,1011.73,1011.73,27.148,26.935,35.067,418.77,341.82,76.95
AOML,65.333,06031993,7:59:31,-8.031,-99.48,439.22,355.58,1010.59,1010.59,27.125,26.911,35.08,418.08,341.37,76.71
AOML,65.375,06031993,9:00:00,-8.031,-99.723,441.69,355.5,1009.71,1009.71,27.125,26.911,35.069,420.05,340.99,79.06
AOML,65.417,06031993,10:00:29,-8.029,-99.965,440.78,355.48,1009.29,1009.29,27.101,26.885,35.059,419.01,340.85,78.17
AOML,65.459,06031993,11:00:58,-8.031,-100.206,443.86,355.52,1008.97,1008.97,27.104,26.888,35.047,421.8,340.77,81.03
AOML,65.5,06031993,12:00:00,-8.028,-100.446,443.32,355.46,1009.38,1009.38,27.14,26.926,35.039,421.47,340.83,80.64
AOML,65.542,06031993,13:00:29,-8.029,-100.686,443.9,355.5,1009.89,1009.89,27.149,26.935,35.037,422.24,341.04,81.2
AOML,65.584,06031993,14:00:58,-8.03,-100.922,443.05,355.53,1010.61,1010.61,27.125,26.911,35.047,421.74,341.33,80.41
AOML,65.625,06031993,15:00:00,-8.03,-101.159,443.1,355.52,1011.28,1011.28,27.127,26.913,35.054,422.08,341.55,80.52
AOML,65.667,06031993,16:00:29,-8.03,-101.395,442.67,355.45,1011.69,1011.69,27.139,26.925,35.041,421.85,341.62,80.22
AOML,65.709,06031993,17:00:58,-8.033,-101.633,444.54,355.52,1011.84,1011.84,27.172,26.96,35.036,423.69,341.72,81.97
AOML,65.75,06031993,18:00:00,-8.029,-101.872,440.3,355.44,1011.55,1011.55,27.207,26.997,35.049,419.52,341.51,78.01
AOML,65.792,06031993,19:00:29,-8.03,-102.113,439.48,355.3,1010.79,1010.79,27.251,27.043,35.036,418.41,341.08,77.33
AOML,65.875,06031993,21:00:00,-8.031,-102.596,433.88,355.36,1009.26,1009.26,27.332,27.128,35.158,412.43,340.55,71.89
AOML,65.917,06031993,22:00:29,-8.028,-102.838,423.15,355.42,1008.63,1008.63,27.279,27.073,35.284,401.97,340.43,61.54
AOML,65.958,06031993,22:59:31,-8.027,-103.079,422.13,355.43,1008.41,1008.41,27.172,26.96,35.316,400.91,340.43,60.48
AOML,66,07031993,0:00:00,-8.025,-103.323,418.55,355.44,1008.78,1008.78,27.116,26.901,35.427,397.67,340.62,57.05
AOML,66.042,07031993,1:00:29,-8.027,-103.565,415.2,355.48,1009.54,1009.54,27.113,26.898,35.401,394.79,340.92,53.87
AOML,66.084,07031993,2:00:58,-8.028,-103.809,419.75,355.51,1010.52,1010.52,27.109,26.894,35.381,399.52,341.3,58.22
AOML,66.125,07031993,3:00:00,-8.028,-104.052,420.88,355.58,1011.18,1011.18,27.168,26.956,35.26,400.87,341.56,59.31
AOML,66.167,07031993,4:00:29,-8.028,-104.29,438.56,355.57,1011.87,1011.87,27.143,26.93,35.059,418,341.8,76.2
AOML,66.209,07031993,5:00:58,-8.028,-104.531,432.28,355.57,1012.56,1012.56,27.077,26.86,35.058,412.31,342.09,70.22
AOML,66.251,07031993,6:01:26,-8.025,-104.775,437.79,355.58,1012.73,1012.73,27.096,26.88,35.116,417.63,342.15,75.49
AOML,66.292,07031993,7:00:29,-8.022,-105.021,439.22,355.59,1011.92,1011.92,27.121,26.906,35.136,418.65,341.86,76.79
AOML,66.334,07031993,8:00:58,-8.026,-105.264,435.67,355.59,1011.32,1011.32,27.107,26.892,35.136,415.02,341.66,73.36
AOML,66.375,07031993,9:00:00,-8.025,-105.51,432.74,355.57,1010.61,1010.61,27.059,26.841,35.167,411.92,341.42,70.5
AOML,66.417,07031993,10:00:29,-8.028,-105.756,438.54,355.53,1010.02,1010.02,27.092,26.876,35.129,417.2,341.16,76.04
AOML,66.458,07031993,10:59:31,-8.027,-105.998,439.06,355.58,1009.77,1009.77,27.13,26.916,35.134,417.58,341.09,76.49
AOML,66.5,07031993,12:00:00,-8.027,-106.242,438.57,355.54,1009.98,1009.98,27.183,26.972,35.144,417.21,341.09,76.12
AOML,66.542,07031993,13:00:29,-8.024,-106.481,433.44,355.56,1010.46,1010.46,27.224,27.015,35.227,412.52,341.24,71.28
AOML,66.584,07031993,14:00:58,-8.026,-106.723,429.03,355.59,1011.47,1011.47,27.273,27.066,35.285,408.75,341.59,67.16
AOML,66.625,07031993,15:00:00,-8.026,-106.962,430.93,355.62,1012.03,1012.03,27.288,27.081,35.311,410.79,341.8,68.99
AOML,66.667,07031993,16:00:29,-8.026,-107.198,435.51,355.63,1012.63,1012.63,27.245,27.037,35.313,415.42,342.05,73.37
AOML,66.708,07031993,16:59:31,-8.027,-107.431,430.14,355.64,1012.57,1012.57,27.283,27.076,35.268,410.27,342.01,68.25
AOML,66.75,07031993,18:00:00,-8.026,-107.667,438.67,355.5,1012.4,1012.4,27.377,27.175,35.231,418.32,341.75,76.58